Ana Sayfa
METAR-TAF:

METAR-TAF

Havaalanları :

Port Isabel-Cameron County Airport

Port Isabel, Teksas, Amerika Birleşik Devletleri

Enlem: 26-09-33N, Boylam: 097-20-15W, yükseklik: 5 m

Güncel hava durumu gözlemi

Rapor saat 03:53 UTC de 48 dakika önce yapıldı.
Rüzgar güneydoğudan 11 kt
Sıcaklık 26°C
Nem 89%
Basınç 1008 hPa
Görüş mesafesi: 11.3 km
Açık gökyüzü

METAR: KPIL 100353Z AUTO 13011KT 7SM CLR 26/24 A2978 RMK AO2 SLP082 T02610239

Saat: 23:41 (04:41 UTC)


TAF: eksik

4.000'den fazla havaalanı için hava durumu gözlemleri ve tahminleri (METAR ve TAF raporları).

Kullanılabilir istasyonlar harita üzerinde sarı ve kırmızı noktalarla gösterilir.

İstasyonun adını görmek için fareyi noktanın üzerinde gezdirin.

Sonrasında hava gözlem ve tahminlerini görmek için tıklayın.

Haritayı değiştirmek için: yaklaştırmak için siyah artı işaretli yeşil düğmeye ve uzaklaştırmak için de eksi işaretli düğmeye hızla tıklayın; bitişik haritalar için yeşil okları kullanın.


METAR-TAF: